Regional Weather Roundup
Issued by NWS

Home | Current Version | Previous Version | Graphics & Text | Print | Product List | Glossary Off
Versions: 1 2 3 4 5 6 7 8 9 10 11 12 13 14 15 16 17 18 19 20 21 22 23 24 25 26 27 28 29 30 31 32 33 34 35 36 37 38 39 40 41 42 43 44 45 46 47 48 49 50

000
ASUS43 KTOP 301259
RWRKS

WEATHER ROUNDUP FOR KANSAS
NATIONAL WEATHER SERVICE GOODLAND KS
800 AM CDT TUE JUN 30 2015

NOTE:  "FAIR" INDICATES FEW OR NO CLOUDS BELOW 12,000 FEET WITH NO
SIGNIFICANT WEATHER AND/OR OBSTRUCTIONS TO VISIBILITY.

KSZ001>006-013>018-027>032-041>047-301400-
NORTHWEST KANSAS

CITY           SKY/WX    TMP DP  RH WIND       PRES   REMARKS
GOODLAND       SUNNY     69  54  58 W5        30.07S
HAYS           MOSUNNY   72  55  56 CALM      30.01R
HILL CITY      SUNNY     70  56  61 W6        30.01S
RUSSELL        SUNNY     73  59  61 S3        29.99S
$$

KSZ061>065-074>080-084>089-301400-
SOUTHWEST KANSAS

CITY           SKY/WX    TMP DP  RH WIND       PRES   REMARKS
DODGE CITY     SUNNY     74  56  53 W10       30.05S
ELKHART          N/A     73  54  51 W7          N/A
GARDEN CITY    SUNNY     68  57  68 SW6       30.06S
GREAT BEND     SUNNY     70  59  68 CALM      30.02S
LIBERAL        SUNNY     70  57  64 SW6       30.11R
$$

KSZ066>073-081>083-090>101-301400-
SOUTHEAST KANSAS

CITY           SKY/WX    TMP DP  RH WIND       PRES   REMARKS
CHANUTE        MOSUNNY   68  65  90 CALM      29.97S
COFFEYVILLE    MOSUNNY   69  67  93 S7        29.98S
HUTCHINSON     MOSUNNY   74  62  66 CALM      29.99S
MEDICINE LODGE   N/A     72  63  73 CALM      30.01R
NEWTON         SUNNY     73  57  56 CALM      30.01S
PARSONS        MOSUNNY   68  67  96 CALM      29.99S
WICHITA INTL   PTSUNNY   73  64  73 SW7       29.99R
WICHITA JABRA  SUNNY     73  61  65 SW9       30.00R
WINFIELD       PTSUNNY   72  62  71 W7        30.01R
$$

KSZ007>012-019>026-033>040-048>060-102>105-301400-
NORTHEAST KANSAS

CITY           SKY/WX    TMP DP  RH WIND       PRES   REMARKS
CONCORDIA      SUNNY     71  63  75 CALM      29.98R HAZE
EMPORIA        PTSUNNY   69  63  81 CALM      29.97S
LAWRENCE       MOSUNNY   68  65  90 W3        29.95R
MANHATTAN      SUNNY     69  64  84 S3        29.97R
OLATHE IND     PTSUNNY   71  63  75 W5        29.96R
OLATHE EXE     PTSUNNY   71  62  73 NW5       29.95R
SALINA         SUNNY     72  61  68 SE3       29.97S
TOPEKA BILLARD SUNNY     69  65  86 CALM      29.95S
TOPEKA FORBES  MOSUNNY   70  62  76 CALM      29.96R
$$


USA.gov is the U.S. government's official web portal to all federal, state and local government web resources and services.